This is the latest recevied weather packets stored in our database for station/object HOWARD. If no packets are shown the sender has not sent any weather packets the latest 10 day(s).
| Time | Temp. | Humidity | Pressure | Rain* | Wind** | Luminosity | Snow |
|---|---|---|---|---|---|---|---|
| 1778058709 | 5° C | 62% | 1013.2 hPa | 0 mm | - | - | - |
| 1778058109 | 5° C | 61% | 1013.1 hPa | 0 mm | - | - | - |
| 1778057509 | 5° C | 60% | 1013 hPa | 0 mm | - | - | - |
| 1778056909 | 5° C | 60% | 1013.1 hPa | 0 mm | - | - | - |
| 1778056309 | 5° C | 55% | 1013.1 hPa | 0 mm | - | - | - |
| 1778055709 | 5° C | 57% | 1013.2 hPa | 0 mm | - | - | - |
| 1778055109 | 4.44° C | 56% | 1013.2 hPa | 0 mm | - | - | - |
| 1778054510 | 4.44° C | 55% | 1013.1 hPa | 0 mm | - | - | - |
| 1778053909 | 4.44° C | 54% | 1013.1 hPa | 0 mm | - | - | - |
| 1778053311 | 4.44° C | 53% | 1013 hPa | 0 mm | - | - | - |
| 1778052709 | 4.44° C | 51% | 1013 hPa | 0 mm | - | - | - |
| 1778052109 | 4.44° C | 51% | 1012.9 hPa | 0 mm | - | - | - |
| 1778051509 | 4.44° C | 51% | 1012.9 hPa | 0 mm | - | - | - |
| 1778050909 | 4.44° C | 51% | 1012.7 hPa | 0 mm | - | - | - |
| 1778050309 | 4.44° C | 51% | 1012.7 hPa | 0 mm | - | - | - |
| 1778049709 | 4.44° C | 53% | 1012.6 hPa | 0 mm | - | - | - |
| 1778049112 | 4.44° C | 56% | 1012.5 hPa | 0 mm | - | - | - |
| 1778048509 | 3.89° C | 57% | 1012.4 hPa | 0 mm | - | - | - |
| 1778047909 | 4.44° C | 63% | 1012.3 hPa | 0 mm | - | - | - |
| 1778047309 | 4.44° C | 66% | 1012.2 hPa | 0 mm | - | - | - |
| 1778046709 | 4.44° C | 65% | 1012 hPa | 0 mm | - | - | - |
| 1778046109 | 4.44° C | 65% | 1012.2 hPa | 0 mm | - | - | - |
| 1778045509 | 3.89° C | 65% | 1012.2 hPa | 0 mm | - | - | - |
| 1778044909 | 3.89° C | 69% | 1012.1 hPa | 0 mm | - | - | - |
| 1778044309 | 3.89° C | 69% | 1012 hPa | 0 mm | - | - | - |
* Rain latest hour (hover to see other rain measurements)
** Current wind speed in m/s (hover to see current wind gust speed)